EW8780 Weather Reports


Display with metric or nautical units.
time (UTC)temp
F
wind
direction
speed
MPH
gust
MPH
rain 1hr
in
rain 24hr
in
rain mn
in
humidity
%
barometer
mb
20260831060011 54 94 0.0 0.0 0.00 0.00 0.00 92 1009.1
20260831054514 54 94 0.0 0.0 0.00 0.00 0.00 92 1009.2
20260831053011 54 94 0.0 0.0 0.00 0.00 0.00 92 1009.3
20260831051513 54 162 0.0 0.0 0.00 0.00 0.00 91 1009.4
20260831050010 54 163 0.0 1.0 0.00 0.00 0.00 92 1009.5
20260831044510 54 163 0.0 2.0 0.00 0.00 0.00 91 1009.6
20260831043008 54 163 0.0 2.0 0.00 0.00 0.00 91 1009.6
20260831041509 54 163 0.0 1.0 0.00 0.00 0.00 90 1009.3
20260831040018 55 163 0.0 1.0 0.00 0.00 0.00 89 1009.3
20260831034507 56 163 0.0 1.0 0.00 0.00 0.00 87 1009.2
20260831033007 57 163 0.0 2.0 0.00 0.00 0.00 86 1009.1
20260831031507 57 163 0.0 1.0 0.00 0.00 0.00 86 1009.1
20260831030006 58 182 0.0 2.0 0.00 0.00 0.00 83 1009.1
20260831024506 59 182 0.0 1.0 0.00 0.00 0.00 83 1009.0
20260831023004 60 183 0.0 1.0 0.00 0.00 0.00 82 1009.0
20260831021557 61 183 0.0 2.0 0.00 0.00 0.00 80 1009.0
20260831020053 62 182 0.0 2.0 0.00 0.00 0.00 78 1008.9
20260831014549 62 190 0.0 1.0 0.00 0.00 0.00 77 1009.0
20260831013102 65 188 0.0 4.0 0.00 0.00 0.00 75 1009.0
20260831011550 66 227 1.0 4.0 0.00 0.00 0.00 73 1009.0
20260831010047 68 164 1.0 5.0 0.00 0.00 0.00 71 1009.0
20260831004547 69 202 1.0 3.0 0.00 0.00 0.00 69 1009.1
20260831003047 70 196 2.0 5.0 0.00 0.00 0.00 66 1009.2
20260831001545 72 154 0.0 3.0 0.00 0.00 0.00 66 1009.2
20260831000045 74 198 2.0 4.0 0.00 0.00 0.00 62 1009.1
20260830234547 74 144 0.0 2.0 0.00 0.00 0.00 66 1009.2
20260830233042 75 100 0.0 3.0 0.00 0.00 0.00 65 1009.4
20260830231553 75 199 1.0 4.0 0.00 0.00 0.00 59 1009.4
20260830230045 76 210 1.0 3.0 0.00 0.00 0.00 60 1009.6
20260830224544 76 171 1.0 4.0 0.00 0.00 0.00 63 1009.6
20260830223036 77 167 1.0 5.0 0.00 0.00 0.00 57 1009.7
20260830221535 78 194 0.0 4.0 0.00 0.00 0.00 59 1009.9
20260830220033 77 195 0.0 4.0 0.00 0.00 0.00 62 1010.0
20260830214631 77 234 2.0 4.0 0.00 0.00 0.00 56 1010.0
20260830213029 77 191 1.0 4.0 0.00 0.00 0.00 62 1010.3
20260830211526 76 161 1.0 3.0 0.00 0.00 0.00 59 1010.4
20260830210025 76 182 1.0 3.0 0.00 0.00 0.00 57 1010.4
20260830204522 74 236 1.0 4.0 0.00 0.00 0.00 58 1010.5
20260830203023 74 232 1.0 4.0 0.00 0.00 0.00 61 1010.6
20260830201533 72 228 0.0 4.0 0.00 0.00 0.00 56 1010.9
20260830200014 71 203 1.0 6.0 0.00 0.00 0.00 62 1011.0
20260830194514 70 215 1.0 6.0 0.00 0.00 0.00 58 1011.1
20260830193015 71 199 2.0 5.0 0.00 0.00 0.00 65 1011.1
20260830191515 69 211 2.0 6.0 0.00 0.00 0.00 66 1011.2
20260830190006 69 164 1.0 5.0 0.00 0.00 0.00 73 1011.3
20260830184503 68 225 1.0 5.0 0.00 0.00 0.00 73 1011.3
20260830183003 68 209 2.0 6.0 0.00 0.00 0.00 74 1011.3
20260830181502 68 178 1.0 4.0 0.00 0.00 0.00 75 1011.4
20260830180106 66 206 1.0 3.0 0.00 0.00 0.00 75 1011.5
20260830174600 64 180 1.0 3.0 0.00 0.00 0.00 80 1011.7
20260830173057 63 233 1.0 4.0 0.00 0.00 0.00 84 1011.7
20260830171546 61 222 2.0 5.0 0.00 0.00 0.00 89 1011.8
20260830170044 61 225 0.0 4.0 0.00 0.00 0.00 94 1011.8
20260830164544 58 195 0.0 0.0 0.00 0.00 0.00 96 1011.8
20260830163037 57 24 0.0 0.0 0.00 0.00 0.00 96 1012.0
20260830161536 57 28 0.0 0.0 0.00 0.00 0.00 96 1012.1
20260830160031 55 24 0.0 0.0 0.00 0.00 0.00 96 1012.3
20260830154528 54 24 0.0 0.0 0.00 0.00 0.00 96 1012.3
20260830153025 52 24 0.0 0.0 0.00 0.00 0.00 95 1012.2
20260830151522 52 24 0.0 0.0 0.00 0.00 0.00 96 1012.1
20260830150026 51 24 0.0 0.0 0.00 0.00 0.00 95 1012.2
20260830144525 51 24 0.0 0.0 0.00 0.00 0.00 95 1012.3
20260830143016 51 24 0.0 0.0 0.00 0.00 0.00 95 1012.2
20260830141534 51 24 0.0 0.0 0.00 0.00 0.00 95 1012.3
20260830140015 51 24 0.0 0.0 0.00 0.00 0.00 95 1012.1
20260830134514 51 24 0.0 0.0 0.00 0.00 0.00 95 1012.2
20260830133013 50 24 0.0 0.0 0.00 0.00 0.00 95 1012.2
20260830131519 51 24 0.0 0.0 0.00 0.00 0.00 95 1012.2
20260830130011 51 24 0.0 0.0 0.00 0.00 0.00 95 1012.2
20260830124509 51 24 0.0 0.0 0.00 0.00 0.00 95 1012.1
20260830123020 51 24 0.0 0.0 0.00 0.00 0.00 95 1012.1
20260830121507 51 24 0.0 0.0 0.00 0.00 0.00 95 1012.1
20260830120007 51 24 0.0 0.0 0.00 0.00 0.00 95 1012.2
20260830114513 51 24 0.0 0.0 0.00 0.00 0.00 95 1012.3
20260830113002 51 24 0.0 0.0 0.00 0.00 0.00 95 1012.4
20260830111502 52 24 0.0 0.0 0.00 0.00 0.00 95 1012.5
20260830110058 52 24 0.0 0.0 0.00 0.00 0.00 95 1012.7
20260830104558 52 24 0.0 0.0 0.00 0.00 0.00 94 1012.6
20260830103056 52 24 0.0 0.0 0.00 0.00 0.00 94 1012.7
20260830101559 52 24 0.0 0.0 0.00 0.00 0.00 94 1012.7
20260830100054 52 24 0.0 0.0 0.00 0.00 0.00 94 1012.7
20260830094554 52 24 0.0 0.0 0.00 0.00 0.00 94 1012.9
20260830093052 52 24 0.0 0.0 0.00 0.00 0.00 94 1012.9
20260830091553 52 24 0.0 0.0 0.00 0.00 0.00 94 1012.9
20260830084548 52 24 0.0 0.0 0.00 0.00 0.00 94 1012.8
20260830083052 53 24 0.0 0.0 0.00 0.00 0.00 93 1012.9
20260830081549 53 24 0.0 0.0 0.00 0.00 0.00 93 1012.9
20260830080043 53 24 0.0 0.0 0.00 0.00 0.00 93 1013.0
20260830074548 53 24 0.0 0.0 0.00 0.00 0.00 93 1012.9
20260830073103 54 24 0.0 0.0 0.00 0.00 0.00 93 1013.0
20260830071544 54 24 0.0 0.0 0.00 0.00 0.00 93 1013.0
20260830070038 54 24 0.0 0.0 0.00 0.00 0.00 93 1013.1
20260830064537 54 24 0.0 0.0 0.00 0.00 0.00 92 1013.0
20260830063039 54 24 0.0 0.0 0.00 0.00 0.00 92 1013.0
20260830061540 55 24 0.0 0.0 0.00 0.00 0.00 92 1012.9